Simultaneous Nadir Overpasses (SNOs) Predictions

Prediction of SNOs between GOES-15 and TERRA Satellite Orbit:

Table of predicted SNOs for the next 14.0 days since TLE Epoch: 4/5/2014
Index Date Time (GOES-15) GOES-15 Lat,Lon TERRA Lat,Lon Distance(km) Time Diff (sec)
1 04/05/2014 07:28:23 -0.02,-135.33 0.05,-134.93 46.23 80
2 04/07/2014 07:16:12 -0.02,-135.37 0.69,-131.97 386.57 80
3 04/07/2014 19:37:27 0.02,-135.38 0.38,-137.13 198.53 80
4 04/09/2014 19:27:56 0.02,-135.42 -0.22,-134.17 141.60 80
5 04/10/2014 07:49:20 -0.01,-135.42 -0.82,-139.37 447.96 80
6 04/11/2014 19:15:45 0.02,-135.45 -0.91,-131.22 481.44 80
7 04/12/2014 07:37:08 -0.02,-135.45 -0.19,-136.41 108.25 80
8 04/14/2014 07:22:15 -0.02,-135.47 0.41,-133.44 231.11 80
9 04/14/2014 19:43:30
